Date String (YYYY-MM-DD hh:mm:ss) UTC,Instrument flags,absolute air pressure of the measurement (hPa),sample flow rate (lpm),inlet stack bypass flow (lpm),air temperature of the measurement (°C),ambient temperature measured by the external sensor (°C),aerosol sample conditioner tube jacket temperature (°C),OPC LED temperature (°C),internal box temperature (°C),relative humidity of the measurement (%),span deviation,mass concentration of particles derived from Lorenz-Mie calculation of OPC scattering (μg/m³),mass concentration of particles derived from Lorenz-Mie calculation of OPC scattering (μg/m³),mass concentration of particles derived from Lorenz-Mie calculation of OPC scattering (μg/m³)
DateTimeUTC,F1_M11,P_M11,Q1_M11,Q2_M11,T1_M11,T2_M11,T3_M11,T4_M11,T5_M11,U1_M11,ZSPAN_M11,X0_M11,X2_M11,X1_M11
2024-02-19 00:00:00,SystemResetWarning,0822.1,5.00,000.00,021.5,021.0,000.0,030.0,023.3,13.5,0000.0,0010.31,0004.87,0004.47
2024-02-19 00:01:00,SystemResetWarning,0822.1,4.99,000.00,021.5,021.0,000.0,030.0,023.4,13.3,0000.0,0010.06,0004.84,0004.46
2024-02-19 00:02:00,SystemResetWarning,0822.2,4.99,000.00,021.5,021.0,000.0,030.0,023.4,13.2,0000.0,0010.01,0004.83,0004.46
2024-02-19 00:03:00,SystemResetWarning,0822.2,5.00,000.00,021.5,021.0,000.0,030.0,023.4,13.4,0000.0,0010.00,0004.82,0004.44
2024-02-19 00:04:00,SystemResetWarning,0822.1,5.00,000.00,021.5,021.0,000.0,030.0,023.4,13.5,0000.0,0009.92,0004.74,0004.39
2024-02-19 00:05:00,SystemResetWarning,0822.2,5.00,000.00,021.5,021.0,000.0,030.0,023.4,13.5,0000.0,0009.82,0004.69,0004.33
2024-02-19 00:06:00,SystemResetWarning,0822.2,5.00,000.00,021.6,021.0,000.0,030.0,023.4,13.6,0000.0,0008.65,0004.64,0004.28
2024-02-19 00:07:00,SystemResetWarning,0822.1,5.00,000.00,021.5,021.0,000.0,030.0,023.3,14.2,0000.0,0008.05,0004.55,0004.18
2024-02-19 00:08:00,SystemResetWarning,0822.0,5.00,000.00,021.5,021.0,000.0,030.0,023.3,14.6,0000.0,0007.52,0004.43,0004.08
2024-02-19 00:09:00,SystemResetWarning,0821.9,5.00,000.00,021.5,021.0,000.0,030.0,023.3,14.6,0000.0,0007.60,0004.37,0004.03
2024-02-19 00:10:00,SystemResetWarning,0821.9,5.00,000.00,021.5,021.0,000.0,030.0,023.3,14.1,0000.0,0007.95,0004.33,0004.01
2024-02-19 00:11:00,SystemResetWarning,0821.9,5.00,000.00,021.5,021.0,000.0,030.0,023.3,14.3,0000.0,0007.87,0004.27,0003.97
2024-02-19 00:12:00,SystemResetWarning,0822.0,5.00,000.00,021.5,021.0,000.0,030.0,023.3,14.6,0000.0,0007.73,0004.21,0003.92
2024-02-19 00:13:00,SystemResetWarning,0821.9,5.00,000.00,021.5,020.9,000.0,030.0,023.3,14.3,0000.0,0007.61,0004.11,0003.83
2024-02-19 00:14:00,SystemResetWarning,0821.9,5.00,000.00,021.5,020.9,000.0,030.0,023.3,14.5,0000.0,0007.44,0003.98,0003.70
2024-02-19 00:15:00,SystemResetWarning,0821.9,4.99,000.00,021.5,020.9,000.0,030.0,023.3,14.6,0000.0,0007.20,0003.82,0003.56
2024-02-19 00:16:00,SystemResetWarning,0821.9,5.00,000.00,021.5,020.9,000.0,030.0,023.3,14.1,0000.0,0006.57,0003.62,0003.39
2024-02-19 00:17:00,SystemResetWarning,0822.0,5.01,000.00,021.5,020.8,000.0,030.0,023.3,14.8,0000.0,0006.79,0003.36,0003.16
2024-02-19 00:18:00,SystemResetWarning,0821.9,5.01,000.00,021.5,020.8,000.0,029.9,023.3,15.0,0000.0,0007.03,0003.11,0002.82
2024-02-19 00:19:00,SystemResetWarning,0822.0,5.00,000.00,021.5,020.8,000.0,029.9,023.3,14.7,0000.0,0006.70,0002.75,0002.46
2024-02-19 00:20:00,SystemResetWarning,0822.0,5.00,000.00,021.5,020.8,000.0,029.9,023.3,14.9,0000.0,0006.66,0002.34,0002.09
2024-02-19 00:21:00,SystemResetWarning,0821.9,4.99,000.00,021.5,020.8,000.0,030.0,023.3,14.7,0000.0,0005.52,0001.91,0001.71
2024-02-19 00:22:00,SystemResetWarning,0821.9,4.99,000.00,021.5,020.8,000.0,030.0,023.3,14.7,0000.0,0004.75,0001.52,0001.35
2024-02-19 00:23:00,SystemResetWarning,0821.8,5.00,000.00,021.5,020.7,000.0,029.9,023.2,14.7,0000.0,0004.36,0001.16,0000.99
2024-02-19 00:24:00,SystemResetWarning,0822.0,5.01,000.00,021.4,020.7,000.0,029.9,023.2,14.5,0000.0,0004.05,0000.87,0000.73
2024-02-19 00:25:00,SystemResetWarning,0822.0,5.01,000.00,021.4,020.7,000.0,029.9,023.2,14.6,0000.0,0003.93,0000.71,0000.54
2024-02-19 00:26:00,SystemResetWarning,0822.0,4.99,000.00,021.4,020.7,000.0,029.9,023.2,14.7,0000.0,0003.79,0000.57,0000.39
2024-02-19 00:27:00,SystemResetWarning,0822.0,5.00,000.00,021.4,020.7,000.0,029.9,023.2,14.6,0000.0,0003.72,0000.50,0000.30
2024-02-19 00:28:00,SystemResetWarning,0822.0,5.00,000.00,021.4,020.7,000.0,029.9,023.2,14.6,0000.0,0002.72,0000.48,0000.29
2024-02-19 00:29:00,SystemResetWarning,0821.9,5.00,000.00,021.4,020.7,000.0,029.9,023.2,14.6,0000.0,0001.95,0000.46,0000.28
2024-02-19 00:30:00,SystemResetWarning,0821.9,5.00,000.00,021.4,020.6,000.0,029.9,023.1,14.7,0000.0,0001.69,0000.44,0000.28
2024-02-19 00:31:00,SystemResetWarning,0821.9,4.99,000.00,021.4,020.6,000.0,029.9,023.1,14.7,0000.0,0000.80,0000.44,0000.28
2024-02-19 00:32:00,SystemResetWarning,0822.0,4.99,000.00,021.4,020.6,000.0,029.8,023.1,14.6,0000.0,0000.87,0000.47,0000.29
2024-02-19 00:33:00,SystemResetWarning,0821.9,5.00,000.00,021.4,020.6,000.0,029.8,023.1,14.7,0000.0,0000.88,0000.48,0000.29
2024-02-19 00:34:00,SystemResetWarning,0821.9,5.00,000.00,021.3,020.6,000.0,029.8,023.1,14.8,0000.0,0000.83,0000.46,0000.28
2024-02-19 00:35:00,SystemResetWarning,0821.8,5.01,000.00,021.3,020.6,000.0,029.8,023.1,14.6,0000.0,0000.90,0000.48,0000.28
2024-02-19 00:36:00,SystemResetWarning,0821.7,5.01,000.00,021.3,020.6,000.0,029.8,023.1,14.6,0000.0,0000.82,0000.45,0000.28
2024-02-19 00:37:00,SystemResetWarning,0821.8,5.01,000.00,021.3,020.6,000.0,029.8,023.1,14.5,0000.0,0000.79,0000.43,0000.27
2024-02-19 00:38:00,SystemResetWarning,0821.8,5.00,000.00,021.3,020.5,000.0,029.8,023.0,14.7,0000.0,0000.78,0000.43,0000.27
2024-02-19 00:39:00,SystemResetWarning,0821.9,5.00,000.00,021.3,020.5,000.0,029.8,023.0,14.9,0000.0,0000.77,0000.43,0000.28
2024-02-19 00:40:00,SystemResetWarning,0821.9,5.00,000.00,021.3,020.5,000.0,029.8,023.0,15.1,0000.0,0000.73,0000.41,0000.27
2024-02-19 00:41:00,SystemResetWarning,0821.9,5.00,000.00,021.3,020.5,000.0,029.8,023.1,15.1,0000.0,0000.71,0000.41,0000.27
2024-02-19 00:42:00,SystemResetWarning,0821.9,4.99,000.00,021.3,020.5,000.0,029.7,023.0,15.2,0000.0,0000.82,0000.42,0000.28
2024-02-19 00:43:00,SystemResetWarning,0821.9,4.99,000.00,021.3,020.5,000.0,029.7,023.0,15.4,0000.0,0001.54,0000.39,0000.27
2024-02-19 00:44:00,SystemResetWarning,0821.9,5.01,000.00,021.2,020.4,000.0,029.7,023.0,15.3,0000.0,0002.18,0000.39,0000.27
2024-02-19 00:45:00,SystemResetWarning,0821.9,5.01,000.00,021.2,020.4,000.0,029.7,023.0,15.2,0000.0,0002.20,0000.40,0000.27
2024-02-19 00:46:00,SystemResetWarning,0821.9,4.99,000.00,021.2,020.4,000.0,029.7,023.0,15.6,0000.0,0002.11,0000.38,0000.26
2024-02-19 00:47:00,SystemResetWarning,0821.9,4.99,000.00,021.2,020.4,000.0,029.7,023.0,15.4,0000.0,0002.80,0000.37,0000.26
2024-02-19 00:48:00,SystemResetWarning,0822.0,4.99,000.00,021.2,020.4,000.0,029.7,023.0,15.5,0000.0,0003.45,0000.38,0000.26
2024-02-19 00:49:00,SystemResetWarning,0821.9,5.00,000.00,021.2,020.4,000.0,029.7,023.0,15.6,0000.0,0003.46,0000.36,0000.26
2024-02-19 00:50:00,SystemResetWarning,0821.9,5.01,000.00,021.2,020.4,000.0,029.6,023.0,15.6,0000.0,0003.45,0000.36,0000.25
2024-02-19 00:51:00,SystemResetWarning,0821.9,5.00,000.00,021.2,020.4,000.0,029.6,022.9,15.5,0000.0,0003.53,0000.37,0000.25
2024-02-19 00:52:00,SystemResetWarning,0821.9,4.99,000.00,021.2,020.4,000.0,029.6,022.9,15.5,0000.0,0003.63,0000.39,0000.26
2024-02-19 00:53:00,SystemResetWarning,0821.9,4.99,000.00,021.2,020.4,000.0,029.6,022.9,15.8,0000.0,0003.61,0000.37,0000.25
2024-02-19 00:54:00,SystemResetWarning,0821.8,5.00,000.00,021.1,020.3,000.0,029.6,022.9,15.8,0000.0,0002.81,0000.36,0000.24
2024-02-19 00:55:00,SystemResetWarning,0821.7,5.00,000.00,021.1,020.3,000.0,029.6,022.9,15.8,0000.0,0002.19,0000.36,0000.25
2024-02-19 00:56:00,SystemResetWarning,0821.5,5.00,000.00,021.1,020.3,000.0,029.6,022.8,15.7,0000.0,0002.07,0000.35,0000.25
2024-02-19 00:57:00,SystemResetWarning,0821.8,5.00,000.00,021.1,020.3,000.0,029.6,022.8,15.6,0000.0,0002.07,0000.36,0000.26
2024-02-19 00:58:00,SystemResetWarning,0821.8,5.00,000.00,021.1,020.3,000.0,029.6,022.8,15.8,0000.0,0001.56,0000.37,0000.27
2024-02-19 00:59:00,SystemResetWarning,0821.8,5.00,000.00,021.1,020.2,000.0,029.5,022.8,15.7,0000.0,0000.72,0000.37,0000.27
